sat.trackr.live / text

‹ back to catalog

ONEWEB-0631

NORAD 55171 · 2023-004AH

PAYLOAD ACTIVE UNKNOWN

§ Identity

Operator
Country
UK
Launch date
2023-01-10
Launch site
AFETR
Launch vehicle
Mass (kg)
RCS (m²)

Purposes: comms

External: N2YO · Heavens-Above · Gunter

§ Orbital elements

Epoch: 2026-09-19T20:54:34.464672Z

Period
109.20 min
Inclination
87.9170°
Eccentricity
0.0001563
Mean motion
13.18685301 rev/d
Perigee alt
1,188.6 km
Apogee alt
1,190.9 km
Semi-major
7,567.9 km
B*
2.2248e-4
RAAN
316.6253°
Arg perigee
108.3203°
Mean anomaly
251.8099°
Rev number
18,215

§ Raw data

ONEWEB-06311 55171U 23004AH  26262.87123223  .00000101  00000+0  22248-3 0  99962 55171  87.9170 316.6253 0001563 108.3203 251.8099 13.18685301182158

JSON: /api/v1/satellites/55171 · /tle

For live sub-satellite position, see the globe view (requires WebGL).

§ Visibility from observer

Set your observer location to see the next 7 days of passes ≥ 10°. The values pass through the URL so the page stays shareable.

No JS? Fill the form by hand. The geolocation button needs JavaScript.